McGuire AFB, NJ

3:01 AM EST on November 23, 2017 (GMT -0500)
McGuire Air Force Base

Weather History for KWRI - January, 2013

Change the Weather History Date:

Tuesday, January 29, 2013

  Actual Average Record
Temperature  
Mean Temperature 40 °F -  
Max Temperature 50 °F 38 °F 71 °F (2002)
Min Temperature 31 °F 22 °F 0 °F (2005)
Degree Days  
Heating Degree Days 24    
Moisture  
Dew Point 37 °F    
Average Humidity 94    
Maximum Humidity 100    
Minimum Humidity 76    
Precipitation  
Precipitation 0.00 in - - ()
Sea Level Pressure  
Sea Level Pressure 30.06 in    
Wind  
Wind Speed 3 mph (SSW)    
Max Wind Speed 9 mph    
Max Gust Speed -    
Visibility 4 miles    
Events Fog    
Averages and records for this station are not official NWS values.
T = Trace of Precipitation, MM = Missing Value Source: NWS Daily Summary

Daily Weather History Graph

Daily Weather History Graph

Search for Another Location

Airport or City:

Trip Planner

Search our weather history database for the weather conditions in past years. The results will help you decide how hot, cold, wet, or windy it might be!

Date:

Astronomy

Jan. 29, 2013 Rise Set
Actual Time 7:09 AM EST 5:14 PM EST
Civil Twilight 6:40 AM EST 5:43 PM EST
Nautical Twilight 6:08 AM EST 6:15 PM EST
Astronomical Twilight 5:36 AM EST 6:47 PM EST
Moon 8:07 PM EST (1/29) 8:05 AM EST (1/29)
Length of Visible Light 11h 02m
Length of Day
10h 04m
Waning Gibbous, 94% of the Moon is Illuminated
Jan 29
Waning Gibbous
Feb 3
Last Quarter
Feb 10
New
Feb 17
First Quarter
Feb 25
Full

Hourly Weather History & Observations

Time (EST) Temp. Windchill Dew Point Humidity Pressure Visibility Wind Dir Wind Speed Gust Speed Precip Events Conditions
12:19 AM 35.6 °F - 33.8 °F 93% 30.03 in 3.0 mi Calm Calm - N/A   Clear
12:35 AM 33.8 °F 28.6 °F 33.8 °F 100% 30.02 in 2.5 mi SW 5.8 mph - N/A   Clear
12:40 AM 33.8 °F 29.6 °F 32.0 °F 93% 30.02 in 2.5 mi SW 4.6 mph - N/A   Clear
12:48 AM 33.8 °F 30.8 °F 33.8 °F 100% 30.02 in 1.8 mi SSW 3.5 mph - N/A   Clear
12:55 AM 33.8 °F - 33.1 °F 97% 30.02 in 1.8 mi Calm Calm - N/A   Clear
1:08 AM 33.8 °F 30.8 °F 33.8 °F 100% 30.01 in 1.5 mi SSW 3.5 mph - N/A   Clear
1:18 AM 33.8 °F - 32.0 °F 93% 30.01 in 1.2 mi Calm Calm - N/A   Clear
1:29 AM 32.0 °F 28.7 °F 32.0 °F 100% 30.01 in 1.0 mi SW 3.5 mph - N/A   Clear
1:34 AM 32.0 °F 28.7 °F 32.0 °F 100% 30.01 in 0.8 mi SSW 3.5 mph - N/A   Clear
1:38 AM 32.0 °F 28.7 °F 32.0 °F 100% 30.02 in 0.5 mi SSW 3.5 mph - N/A Fog Fog
1:40 AM 32.0 °F - 32.0 °F 100% 30.02 in 0.5 mi Calm Calm - N/A Fog Fog
1:45 AM 32.0 °F 28.7 °F 32.0 °F 100% 30.02 in 0.5 mi SW 3.5 mph - N/A Fog Light Freezing Fog
1:47 AM 32.0 °F 28.7 °F 32.0 °F 100% 30.02 in 0.5 mi SW 3.5 mph - N/A Fog Light Freezing Fog
1:55 AM 31.5 °F - 30.9 °F 98% 30.02 in 0.5 mi Calm Calm - N/A Fog Light Freezing Fog
1:56 AM 32.0 °F - 30.2 °F 93% 30.02 in 0.8 mi Calm Calm - N/A   Clear
1:59 AM 32.0 °F - 32.0 °F 100% 30.02 in 0.5 mi Calm Calm - N/A Fog Light Freezing Fog
2:13 AM 32.0 °F 27.5 °F 32.0 °F 100% 30.03 in 0.5 mi SW 4.6 mph - N/A Fog Light Freezing Fog
2:18 AM 32.0 °F 28.7 °F 32.0 °F 100% 30.03 in 0.8 mi SW 3.5 mph - N/A   Mostly Cloudy
2:23 AM 32.0 °F 28.7 °F 32.0 °F 100% 30.03 in 0.8 mi SW 3.5 mph - N/A   Mostly Cloudy
2:24 AM 32.0 °F 28.7 °F 32.0 °F 100% 30.03 in 1.0 mi SW 3.5 mph - N/A   Mostly Cloudy
2:28 AM 32.0 °F 28.7 °F 32.0 °F 100% 30.03 in 1.2 mi SW 3.5 mph - N/A   Mostly Cloudy
2:33 AM 32.0 °F 28.7 °F 32.0 °F 100% 30.03 in 1.5 mi SW 3.5 mph - N/A   Overcast
2:42 AM 33.8 °F - 32.0 °F 93% 30.03 in 1.8 mi Calm Calm - N/A   Overcast
2:55 AM 33.1 °F - 32.9 °F 99% 30.03 in 1.8 mi Calm Calm - N/A   Overcast
2:57 AM 32.0 °F - 32.0 °F 100% 30.03 in 2.0 mi Calm Calm - N/A   Overcast
3:04 AM 32.0 °F - 32.0 °F 100% 30.04 in 2.5 mi Calm Calm - N/A   Overcast
3:08 AM 32.0 °F - 32.0 °F 100% 30.03 in 3.0 mi Calm Calm - N/A   Overcast
3:21 AM 33.8 °F - 33.8 °F 100% 30.04 in 2.5 mi Calm Calm - N/A   Overcast
3:24 AM 33.8 °F - 33.8 °F 100% 30.04 in 2.0 mi Calm Calm - N/A   Overcast
3:27 AM 33.8 °F - 33.8 °F 100% 30.04 in 1.8 mi Calm Calm - N/A   Overcast
3:35 AM 33.8 °F - 33.8 °F 100% 30.04 in 2.0 mi Calm Calm - N/A   Overcast
3:55 AM 34.3 °F - 34.2 °F 99% 30.04 in 2.0 mi Calm Calm - N/A   Overcast
3:59 AM 33.8 °F - 33.8 °F 100% 30.04 in 1.8 mi Calm Calm - N/A   Overcast
4:14 AM 35.6 °F 31.7 °F 33.8 °F 93% 30.04 in 1.8 mi SW 4.6 mph - N/A   Overcast
4:17 AM 35.6 °F 30.7 °F 33.8 °F 93% 30.04 in 1.8 mi SW 5.8 mph - N/A   Overcast
4:20 AM 35.6 °F 31.7 °F 35.6 °F 100% 30.04 in 2.0 mi SW 4.6 mph - N/A   Overcast
4:55 AM 36.1 °F - 36.0 °F 99% 30.05 in 2.0 mi Calm Calm - N/A   Overcast
5:00 AM 35.6 °F 32.8 °F 35.6 °F 100% 30.05 in 2.5 mi WSW 3.5 mph - N/A   Overcast
5:07 AM 35.6 °F 32.8 °F 35.6 °F 100% 30.06 in 3.0 mi WSW 3.5 mph - N/A   Overcast
5:10 AM 35.6 °F 31.7 °F 35.6 °F 100% 30.06 in 3.0 mi SW 4.6 mph - N/A   Overcast
5:11 AM 35.6 °F 30.7 °F 35.6 °F 100% 30.06 in 2.5 mi SW 5.8 mph - N/A   Overcast
5:35 AM 37.4 °F 32.8 °F 35.6 °F 93% 30.06 in 2.5 mi WSW 5.8 mph - N/A   Overcast
5:36 AM 37.4 °F 32.8 °F 35.6 °F 93% 30.06 in 3.0 mi WSW 5.8 mph - N/A   Overcast
5:55 AM 36.9 °F 33.1 °F 36.7 °F 99% 30.06 in 3.0 mi WSW 4.6 mph - N/A   Overcast
6:53 AM 37.4 °F - 35.6 °F 93% 30.09 in 4.0 mi Calm Calm - N/A   Overcast
6:55 AM 37.4 °F - 36.3 °F 96% 30.09 in 4.0 mi Calm Calm - N/A   Overcast
7:17 AM 37.4 °F - 37.4 °F 100% 30.09 in 2.5 mi Calm Calm - N/A   Overcast
7:34 AM 37.4 °F 34.9 °F 37.4 °F 100% 30.10 in 3.0 mi West 3.5 mph - N/A   Overcast
7:46 AM 39.2 °F 34.2 °F 37.4 °F 93% 30.10 in 2.5 mi NE 6.9 mph - N/A   Overcast
7:55 AM 38.3 °F 33.9 °F 37.0 °F 95% 30.11 in 2.5 mi NE 5.8 mph - N/A   Overcast
8:01 AM 37.4 °F 33.8 °F 37.4 °F 100% 30.11 in 2.5 mi NE 4.6 mph - N/A   Overcast
8:24 AM 39.2 °F - 37.4 °F 93% 30.11 in 3.0 mi Calm Calm - N/A   Overcast
8:55 AM 39.6 °F 36.3 °F 38.3 °F 95% 30.12 in 3.0 mi South 4.6 mph - N/A   Overcast
9:55 AM 41.7 °F 38.8 °F 39.4 °F 91% 30.14 in 4.0 mi WSW 4.6 mph - N/A   Overcast
10:55 AM 44.2 °F 41.8 °F 41.0 °F 88% 30.14 in 6.0 mi SW 4.6 mph - N/A   Overcast
11:55 AM 47.7 °F - 42.6 °F 83% 30.11 in 10.0 mi SW 3.5 mph - N/A   Overcast
12:17 PM 48.2 °F - 42.8 °F 82% 30.11 in 10.0 mi WSW 5.8 mph - N/A   Overcast
12:55 PM 50.0 °F - 43.2 °F 77% 30.10 in 10.0 mi West 4.6 mph - N/A   Overcast
1:51 PM 50.0 °F - 44.6 °F 82% 30.08 in 10.0 mi South 4.6 mph - N/A   Overcast
1:55 PM 50.2 °F - 43.9 °F 79% 30.08 in 10.0 mi South 3.5 mph - N/A   Overcast
2:02 PM 50.0 °F - 42.8 °F 76% 30.08 in 10.0 mi South 4.6 mph - N/A   Overcast
2:55 PM 50.4 °F - 43.9 °F 78% 30.08 in 10.0 mi SE 3.5 mph - N/A   Overcast
3:55 PM 50.7 °F - 44.2 °F 78% 30.08 in 10.0 mi SE 3.5 mph - N/A   Overcast
4:27 PM 50.0 °F - 44.6 °F 82% 30.06 in 10.0 mi SE 4.6 mph - N/A   Overcast
4:55 PM 50.5 °F - 43.3 °F 76% 30.07 in 10.0 mi SE 3.5 mph - N/A   Overcast
5:55 PM 48.2 °F - 41.4 °F 77% 30.08 in 10.0 mi ESE 8.1 mph - N/A   Overcast
6:55 PM 47.3 °F - 41.7 °F 81% 30.09 in 10.0 mi Variable 5.8 mph - N/A   Overcast
7:55 PM 46.0 °F 43.9 °F 41.9 °F 85% 30.09 in 10.0 mi ESE 4.6 mph - N/A   Overcast
8:17 PM 46.4 °F 44.3 °F 42.8 °F 87% 30.09 in 10.0 mi SE 4.6 mph - N/A   Overcast
8:45 PM 46.4 °F 45.2 °F 42.8 °F 87% 30.09 in 10.0 mi SE 3.5 mph - N/A   Overcast
8:54 PM 46.4 °F 44.3 °F 41.0 °F 81% 30.09 in 10.0 mi SE 4.6 mph - N/A   Overcast
8:55 PM 45.5 °F 43.2 °F 41.9 °F 87% 30.09 in 10.0 mi SE 4.6 mph - N/A   Overcast
9:17 PM 44.6 °F 42.2 °F 42.8 °F 93% 30.09 in 10.0 mi SE 4.6 mph - N/A   Overcast
9:40 PM 44.6 °F 42.2 °F 42.8 °F 93% 30.08 in 10.0 mi ESE 4.6 mph - N/A   Overcast
9:52 PM 44.6 °F 42.2 °F 42.8 °F 93% 30.08 in 10.0 mi ESE 4.6 mph - N/A   Overcast
9:55 PM 45.3 °F 43.0 °F 43.0 °F 92% 30.08 in 10.0 mi SE 4.6 mph - N/A   Overcast
10:12 PM 44.6 °F 43.1 °F 42.8 °F 93% 30.07 in 10.0 mi Variable 3.5 mph - N/A   Overcast
10:30 PM 46.4 °F - 44.6 °F 93% 30.07 in 9.0 mi Calm Calm - N/A   Overcast
10:47 PM 46.4 °F 43.5 °F 44.6 °F 93% 30.06 in 6.0 mi SSE 5.8 mph - N/A   Overcast
10:55 PM 46.0 °F 43.9 °F 45.1 °F 97% 30.06 in 6.0 mi South 4.6 mph - N/A   Overcast
11:09 PM 46.4 °F 42.9 °F 46.4 °F 100% 30.05 in 5.0 mi South 6.9 mph - N/A   Overcast
11:29 PM 46.4 °F 42.4 °F 46.4 °F 100% 30.05 in 3.0 mi South 8.1 mph - N/A   Overcast
11:44 PM 48.2 °F - 46.4 °F 93% 30.05 in 4.0 mi Variable 5.8 mph - N/A   Overcast
11:55 PM 47.7 °F - 47.3 °F 99% 30.04 in 4.0 mi SSW 9.2 mph - N/A   Overcast